Regional Weather Roundup
Issued by NWS

Home | Current Version | Previous Version | Graphics & Text | Print | Product List | Glossary On
Versions: 1 2 3 4 5 6 7 8 9 10 11 12 13 14 15 16 17 18 19 20 21 22 23 24 25 26 27 28 29 30 31 32 33 34 35 36 37 38 39 40 41 42 43 44 45 46 47 48 49 50
000
ASUS43 KOAX 301210
RWRNE

WEATHER ROUNDUP FOR NEBRASKA
NATIONAL WEATHER SERVICE OMAHA NE
700 AM CDT SUN APR 30 2017

NOTES: SATELLITE DATA IS BEING USED TO AUGMENT CLOUD COVER ABOVE
       12000 FEET.
       "FAIR" INDICATES FEW OR NO CLOUDS BELOW 12,000 FEET WITH NO
       SIGNIFICANT WEATHER AND/OR OBSTRUCTIONS TO VISIBILITY.

  * THESE STATIONS DO NOT REPORT WEATHER SUCH AS RAIN...SNOW OR FOG.

NEZ001>004-019>022-054>056-301300-
NEBRASKA PANHANDLE

CITY           SKY/WX    TMP DP  RH WIND       PRES   REMARKS
SCOTTSBLUFF    CLOUDY    29  23  78 NW10      30.05F WCI  20
6HR MIN TEMP:  29; 6HR MAX TEMP:  36;

ALLIANCE       CLOUDY    31  24  75 N12       30.02S WCI  22
6HR MIN TEMP:  29; 6HR MAX TEMP:  32;

CHADRON        CLOUDY    27  23  85 SW5       30.07S WCI  22
6HR MIN TEMP:  26; 6HR MAX TEMP:  33;

KIMBALL        CLOUDY    32  22  65 N16       30.01S WCI  22
SIDNEY         CLOUDY    32  23  69 N18       29.98F WCI  20
6HR MIN TEMP:  31; 6HR MAX TEMP:  36;

$$

NEZ057>060-069>072-079>082-301300-
SOUTHWEST NEBRASKA

CITY           SKY/WX    TMP DP  RH WIND       PRES   REMARKS
NORTH PLATTE   CLOUDY    40  25  55 N22G32    29.88F WCI  30
6HR MIN TEMP:  40; 6HR MAX TEMP:  43;

IMPERIAL       CLOUDY    38  24  57 N24G31    29.86F WCI  27
6HR MIN TEMP:  38; 6HR MAX TEMP:  40;

LEXINGTON      LGT SNOW  33  32  94 N16       29.82F WCI  23
MCCOOK         LGT SNOW  34  32  92 N32G38    29.76F FOG     WCI  20
6HR MIN TEMP:  33; 6HR MAX TEMP:  37; 6HR PCP:  0.11;

OGALLALA       CLOUDY    39  26  58 N21       29.94F WCI  29
$$

NEZ005>010-023>029-035>040-094-301300-
NORTH CENTRAL NEBRASKA

CITY           SKY/WX    TMP DP  RH WIND       PRES   REMARKS
VALENTINE      CLOUDY    40  21  46 N10       30.03S WCI  33
6HR MIN TEMP:  38; 6HR MAX TEMP:  45;

AINSWORTH      CLOUDY    36  27  70 N10       30.02R WCI  29
BROKEN BOW     CLOUDY    40  27  59 N23G31    29.85F WCI  30
6HR MIN TEMP:  39; 6HR MAX TEMP:  42;

O`NEILL        CLOUDY    41  26  54 N12       29.97R
ORD            LGT RAIN  37  32  82 N20G28    29.88F WCI  27
6HR MIN TEMP:  36; 6HR MAX TEMP:  41; 6HR PCP:  0.05;

THEDFORD       CLOUDY    38  27  65 N13       29.98F WCI  30
$$

NEZ041-046>049-061>064-073>077-083>087-301300-
SOUTH CENTRAL NEBRASKA

CITY           SKY/WX    TMP DP  RH WIND       PRES   REMARKS
GRAND ISLAND   LGT RAIN  36  36 100 N28G36    29.75F WCI  23
6HR MIN TEMP:  34; 6HR MAX TEMP:  38; 6HR PCP:  0.48;

AURORA         RAIN      37  36  97 NE30      29.72F WCI  24
HASTINGS       RAIN      36  34  92 NE24G38   29.75R FOG     WCI  24
6HR MIN TEMP:  35; 6HR MAX TEMP:  36; 6HR PCP:  0.45;

HEBRON         TSTM      37  37  97 NE22G32   29.68F WCI  27
HOLDREGE       LGT SNOW  33  32  96 N33G39    29.73F WCI  19
KEARNEY *      CLOUDY   N/A N/A N/A N29G37    29.74F
YORK           MIX PCPN  37  37 100 NE32G39   29.73F WCI  25
$$

NEZ011>018-030>034-042>045-301300-
NORTHEAST NEBRASKA

CITY           SKY/WX    TMP DP  RH WIND       PRES   REMARKS
NORFOLK        LGT RAIN  36  33  89 NE16      29.85F WCI  26
6HR MIN TEMP:  36; 6HR MAX TEMP:  44;

ALBION         MIX PCPN  37  34  88 N14G20    29.87S WCI  29
BLAIR          LGT RAIN  38  37  95 N24G33    29.75F WCI  27
FREMONT        DRIZZLE   38  38  98 N14G26    29.80F WCI  30
TEKAMAH        LGT RAIN  39  37  92 N21       29.82F WCI  29
6HR MIN TEMP:  39; 6HR MAX TEMP:  41; 6HR PCP:  0.12;

WAYNE          LGT RAIN  38  38  98 NE18      29.86F WCI  29
$$

NEZ050>053-065>068-078-088>093-301300-
SOUTHEAST NEBRASKA

CITY           SKY/WX    TMP DP  RH WIND       PRES   REMARKS
LINCOLN        LGT RAIN  39  37  92 NE22G29   29.75S FOG     WCI  29
6HR MIN TEMP:  39; 6HR MAX TEMP:  40; 6HR PCP:  0.20;

OMAHA EPPLEY   CLOUDY    39  35  86 NE17G31   29.77F WCI  30
6HR MIN TEMP:  39; 6HR MAX TEMP:  41; 6HR PCP:  0.21;

BEATRICE       LGT RAIN  39  38  96 NE18G31   29.67R WCI  30
FALLS CITY     LGT RAIN  41  40  96 NE10      29.67R FOG
6HR MIN TEMP:  40; 6HR MAX TEMP:  41; 6HR PCP:  0.05;

NEBRASKA CITY  LGT RAIN  38  38 100 NE20G26   29.70R WCI  29
PLATTSMOUTH    DRIZZLE   39  36  89 NE18G29   29.73S WCI  29
$$

NEZ044-045-051>053-067-301300-
OMAHA AREA

CITY           SKY/WX    TMP DP  RH WIND       PRES   REMARKS
OMAHA EPPLEY   CLOUDY    39  35  86 NE17G31   29.77F WCI  30
6HR MIN TEMP:  39; 6HR MAX TEMP:  41; 6HR PCP:  0.21;

BLAIR          LGT RAIN  38  37  95 N24G33    29.75F WCI  27
FREMONT        DRIZZLE   38  38  98 N14G26    29.80F WCI  30
MILLARD        DRIZZLE   40  38  91 NE9       29.78R WCI  34
OFFUTT AFB     LGT RAIN  39  36  89 NE10G23   29.75R WCI  32
PLATTSMOUTH    DRIZZLE   39  36  89 NE18G29   29.73S WCI  29
WAHOO          LGT RAIN  38  37  93 N23G30    29.77S WCI  28
$$




USA.gov is the U.S. government's official web portal to all federal, state and local government web resources and services.